This is the latest recevied weather packets stored in our database for station/object KG2V. If no packets are shown the sender has not sent any weather packets the latest 10 day(s).
| Time | Temp. | Humidity | Pressure | Rain* | Wind** | Luminosity | Snow |
|---|---|---|---|---|---|---|---|
| 1777892210 | 10° C | 65% | 1003.1 hPa | 0 mm | - | 18 W/m² | - |
| 1777891907 | 10° C | 66% | 1003 hPa | 0 mm | - | 20 W/m² | - |
| 1777891605 | 10° C | 66% | 1002.9 hPa | 0 mm | - | 22 W/m² | - |
| 1777891301 | 9.44° C | 64% | 1002.8 hPa | 0 mm | - | 16 W/m² | - |
| 1777891001 | 9.44° C | 66% | 1002.8 hPa | 0 mm | - | 12 W/m² | - |
| 1777890696 | 10° C | 65% | 1002.8 hPa | 0 mm | - | 9 W/m² | - |
| 1777890392 | 10° C | 64% | 1002.9 hPa | 0 mm | - | 7 W/m² | - |
| 1777890088 | 10° C | 63% | 1002.8 hPa | 0 mm | - | 6 W/m² | - |
| 1777889786 | 10.56° C | 63% | 1002.9 hPa | 0 mm | - | 4 W/m² | - |
| 1777889483 | 10.56° C | 60% | 1002.7 hPa | 0 mm | - | 3 W/m² | - |
| 1777889181 | 10.56° C | 59% | 1002.4 hPa | 0 mm | - | 2 W/m² | - |
| 1777888879 | 11.11° C | 59% | 1002.6 hPa | 0 mm | - | 1 W/m² | - |
| 1777888575 | 11.11° C | 58% | 1002.6 hPa | 0 mm | - | 1 W/m² | - |
| 1777888271 | 11.11° C | 57% | 1002.6 hPa | 0 mm | - | 0 W/m² | - |
| 1777887968 | 11.11° C | 57% | 1002.6 hPa | 0 mm | - | 0 W/m² | - |
| 1777887665 | 11.11° C | 57% | 1002.8 hPa | 0 mm | - | 0 W/m² | - |
| 1777887361 | 11.11° C | 57% | 1002.7 hPa | 0 mm | - | 0 W/m² | - |
| 1777887057 | 11.11° C | 58% | 1002.6 hPa | 0 mm | - | 0 W/m² | - |
| 1777886753 | 11.11° C | 59% | 1002.8 hPa | 0 mm | - | 0 W/m² | - |
| 1777886450 | 11.11° C | 59% | 1002.9 hPa | 0 mm | - | 0 W/m² | - |
| 1777886148 | 10.56° C | 58% | 1003 hPa | 0 mm | - | 0 W/m² | - |
| 1777885845 | 10.56° C | 58% | 1002.8 hPa | 0 mm | - | 0 W/m² | - |
| 1777885543 | 10.56° C | 59% | 1003.1 hPa | 0 mm | - | 0 W/m² | - |
| 1777885241 | 10.56° C | 59% | 1003 hPa | 0 mm | - | 0 W/m² | - |
| 1777884939 | 10.56° C | 58% | 1003.2 hPa | 0 mm | - | 0 W/m² | - |
* Rain latest hour (hover to see other rain measurements)
** Current wind speed in m/s (hover to see current wind gust speed)